Estación meteorológica de Els Cortals - St. Hilari Sacalm (La Selva, Guilleries)

Consulta los datos en tiempo real de la estación meteorológica de Els Cortals - St. Hilari Sacalm





Hora UTC 12:25
Temperatura 16.6 ºC
Humedad 65.0 %
Presión 1005.8 hPa
Pluja 0.2 mm
Velocidad viento 8.0 km/h
Dirección viento W

Datos diarios 2026-05-10



Hora UTC (invierno +1h; verano +2h)
Temperatura (ºC) Humedad (%) Presión (hPa) Velocidad viento (km/h) Precipitación (mm)
Hora UTC Aire Humedad Presión Vel. Dir. Vel. Max Dir. Intent. máx 5 min.
00:05 9.1 67.0 1006.9 6.4 WNW 6.4 0.0
00:10 8.9 67.0 1006.8 6.4 W 12.9 0.0
00:15 8.9 67.0 1006.8 8.0 W 11.3 0.0
00:20 8.8 67.0 1006.8 6.4 W 11.3 0.0
00:25 8.7 67.0 1006.7 6.4 W 9.7 0.0
00:30 8.7 67.0 1006.6 3.2 W 9.7 0.0
00:35 8.7 67.0 1006.6 6.4 W 12.9 0.0
00:40 8.7 67.0 1006.6 4.8 W 12.9 0.0
00:45 8.6 67.0 1006.4 6.4 W 11.3 0.0
00:50 8.6 67.0 1006.3 3.2 WSW 9.7 0.0
00:55 8.6 67.0 1006.2 8.0 WSW 9.7 0.0
01:00 8.6 67.0 1006.2 4.8 WSW 9.7 0.0
01:05 8.6 67.0 1006.0 6.4 WSW 11.3 0.0
01:10 8.6 67.0 1005.9 9.7 WSW 11.3 0.0
01:15 8.6 67.0 1006.0 6.4 WSW 12.9 0.0
01:20 8.6 67.0 1005.9 8.0 WSW 12.9 0.0
01:25 8.6 68.0 1005.8 9.7 WSW 12.9 0.0
01:30 8.7 68.0 1005.7 12.9 W 14.5 0.0
01:35 8.7 68.0 1005.7 6.4 WSW 14.5 0.0
01:40 8.8 68.0 1005.6 11.3 W 16.1 0.0
01:45 8.8 68.0 1005.7 16.1 W 17.7 0.0
01:50 8.8 68.0 1005.6 8.0 W 17.7 0.0
01:55 8.8 68.0 1005.6 11.3 WSW 20.9 0.0
02:00 8.9 68.0 1005.7 11.3 WSW 22.5 0.0
02:05 8.9 68.0 1005.7 19.3 W 19.3 0.0
02:10 8.9 68.0 1005.6 16.1 W 19.3 0.0
02:15 8.9 69.0 1005.6 11.3 WSW 20.9 0.0
02:20 8.9 69.0 1005.7 14.5 WSW 20.9 0.0
02:25 8.9 69.0 1005.7 16.1 W 20.9 0.0
02:30 8.9 69.0 1005.7 17.7 WSW 22.5 0.0
02:35 8.9 69.0 1005.7 17.7 WSW 22.5 0.0
02:40 8.8 69.0 1005.7 14.5 WSW 17.7 0.0
02:45 8.8 69.0 1005.8 11.3 W 19.3 0.0
02:50 8.8 70.0 1005.7 14.5 W 19.3 0.0
02:55 8.8 70.0 1005.7 14.5 W 19.3 0.0
03:00 8.8 70.0 1005.7 9.7 W 25.7 0.3
03:05 8.7 70.0 1005.6 14.5 W 25.7 0.0
03:10 8.7 70.0 1005.4 11.3 WSW 20.9 0.0
03:15 8.7 70.0 1005.4 9.7 W 19.3 0.0
03:20 8.7 70.0 1005.4 11.3 WSW 19.3 0.0
03:25 8.7 70.0 1005.2 14.5 W 19.3 0.0
03:30 8.7 70.0 1005.3 12.9 W 19.3 0.0
03:35 8.6 70.0 1005.2 9.7 W 19.3 0.0
03:40 8.6 70.0 1005.1 11.3 WSW 17.7 0.0
03:45 8.6 69.0 1005.1 11.3 WSW 24.1 0.0
03:50 8.6 69.0 1005.1 9.7 WSW 24.1 0.0
03:55 8.6 69.0 1005.0 12.9 WSW 22.5 0.0
04:00 8.6 69.0 1005.0 16.1 WNW 22.5 0.0
04:05 8.6 69.0 1005.0 19.3 W 22.5 0.0
04:10 8.6 69.0 1005.0 12.9 WSW 20.9 0.0
04:15 8.6 69.0 1004.9 11.3 WSW 20.9 0.0
04:20 8.6 69.0 1004.9 14.5 W 19.3 0.0
04:25 8.6 69.0 1004.8 16.1 WSW 20.9 0.0
04:30 8.6 69.0 1004.9 11.3 WSW 20.9 0.0
04:35 8.6 69.0 1005.0 16.1 W 24.1 0.0
04:40 8.6 70.0 1004.9 12.9 WSW 24.1 0.0
04:45 8.6 70.0 1004.8 14.5 W 25.7 0.0
04:50 8.6 70.0 1004.9 14.5 WSW 25.7 0.0
04:55 8.7 70.0 1004.9 12.9 W 24.1 0.0
05:00 8.8 70.0 1004.9 16.1 WSW 24.1 0.0
05:05 8.7 70.0 1005.0 16.1 WSW 25.7 0.0
05:10 8.7 70.0 1004.9 19.3 W 25.7 0.0
05:15 8.7 70.0 1004.9 14.5 W 29.0 0.0
05:20 8.7 71.0 1005.0 19.3 W 29.0 0.0
05:25 8.8 71.0 1005.0 17.7 W 24.1 0.0
05:30 8.8 72.0 1005.0 19.3 W 24.1 0.0
05:35 8.9 72.0 1004.9 20.9 W 22.5 0.0
05:40 9.0 76.0 1005.2 9.7 SW 22.5 0.0
05:45 9.2 75.0 1005.0 19.3 W 24.1 0.0
05:50 9.3 77.0 1005.1 16.1 WSW 24.1 0.0
05:55 9.4 78.0 1005.3 19.3 W 29.0 0.0
06:00 9.6 79.0 1005.4 14.5 W 22.5 0.0
06:05 9.7 80.0 1005.3 16.1 WSW 22.5 0.0
06:10 9.8 81.0 1005.2 12.9 WSW 25.7 0.0
06:15 9.9 81.0 1005.3 16.1 WSW 25.7 0.0
06:20 10.0 81.0 1005.4 16.1 W 25.7 0.0
06:25 10.1 81.0 1005.6 12.9 W 24.1 0.0
06:30 10.2 82.0 1005.5 11.3 WSW 20.9 0.0
06:35 10.3 82.0 1005.6 16.1 W 30.6 0.0
06:40 10.4 82.0 1005.6 12.9 WSW 30.6 0.0
06:45 10.4 82.0 1005.7 11.3 WSW 20.9 0.0
06:50 10.5 82.0 1005.8 14.5 W 22.5 0.0
06:55 10.6 83.0 1005.9 14.5 WSW 24.1 0.0
07:00 10.7 83.0 1005.9 12.9 NW 24.1 0.0
07:05 10.8 83.0 1006.0 20.9 W 22.5 0.0
07:10 11.0 83.0 1005.8 12.9 W 24.1 0.0
07:15 11.2 83.0 1006.0 12.9 SW 24.1 0.0
07:20 11.3 83.0 1005.7 12.9 W 20.9 0.0
07:25 11.4 82.0 1005.8 16.1 WSW 20.9 0.0
07:30 11.6 82.0 1006.1 16.1 WSW 22.5 0.0
07:35 11.8 82.0 1006.0 11.3 WSW 22.5 0.0
07:40 11.9 82.0 1005.9 14.5 W 22.5 0.0
07:45 12.1 81.0 1005.7 17.7 W 20.9 0.0
07:50 12.1 82.0 1005.9 14.5 WSW 20.9 0.0
07:55 12.2 81.0 1005.8 12.9 WSW 24.1 0.0
08:00 12.2 82.0 1006.0 17.7 W 24.1 0.0
08:05 12.2 82.0 1006.0 14.5 SW 29.0 0.0
08:10 12.3 82.0 1006.0 12.9 W 37.0 0.0
08:15 12.4 83.0 1006.1 9.7 WSW 37.0 0.0
08:20 12.5 82.0 1005.9 12.9 W 22.5 0.0
08:25 12.7 83.0 1006.0 20.9 W 29.0 0.0
08:30 12.7 83.0 1006.2 11.3 WSW 29.0 0.0
08:35 12.8 83.0 1006.4 12.9 WNW 29.0 0.0
08:40 12.8 82.0 1006.4 9.7 SW 22.5 0.0
08:45 13.0 83.0 1006.4 8.0 SW 20.9 0.0
08:50 13.2 83.0 1006.4 12.9 W 20.9 0.0
08:55 13.5 83.0 1006.3 11.3 SW 20.9 0.0
09:00 13.7 83.0 1006.4 9.7 WSW 20.9 0.0
09:05 13.7 82.0 1006.6 6.4 SW 19.3 0.0
09:10 13.7 82.0 1006.5 16.1 WSW 19.3 0.0
09:15 13.8 82.0 1006.5 11.3 WSW 17.7 0.0
09:20 13.9 83.0 1006.6 9.7 NW 19.3 0.0
09:25 13.9 82.0 1006.6 8.0 WSW 22.5 0.0
09:30 14.0 82.0 1006.6 14.5 W 19.3 0.0
09:35 14.2 82.0 1006.6 8.0 SSW 17.7 0.0
09:40 14.3 81.0 1006.6 8.0 SW 17.7 0.0
09:45 14.6 80.0 1006.8 9.7 W 19.3 0.0
09:50 14.7 78.0 1006.7 4.8 WSW 19.3 0.0
09:55 14.9 79.0 1006.7 3.2 WNW 22.5 0.0
10:00 15.2 79.0 1006.7 8.0 SSW 16.1 0.0
10:05 15.0 77.0 1006.7 9.7 WSW 20.9 0.0
10:10 15.0 76.0 1006.5 17.7 W 24.1 0.0
10:15 15.0 77.0 1006.4 11.3 W 24.1 0.0
10:20 15.0 77.0 1006.5 9.7 W 25.7 0.0
10:25 15.0 75.0 1006.6 8.0 W 32.2 0.0
10:30 14.8 74.0 1006.7 17.7 W 32.2 0.0
10:35 14.9 75.0 1006.7 8.0 SSE 24.1 0.0
10:40 15.0 73.0 1006.5 9.7 WNW 20.9 0.0
10:45 15.2 73.0 1006.7 20.9 WSW 25.7 0.0
10:50 15.2 72.0 1006.4 6.4 W 25.7 0.0
10:55 15.3 72.0 1006.3 8.0 SW 19.3 0.0
11:00 15.5 71.0 1006.3 17.7 W 22.5 0.0
11:05 15.6 71.0 1006.5 8.0 SSW 22.5 0.0
11:10 15.7 71.0 1006.5 12.9 SSE 22.5 0.0
11:15 15.8 69.0 1006.5 17.7 WSW 20.9 0.0
11:20 15.8 70.0 1006.4 16.1 SW 29.0 0.0
11:25 15.7 68.0 1006.4 14.5 WNW 20.9 0.0
11:30 15.8 69.0 1006.4 6.4 SW 29.0 0.0
11:35 16.1 67.0 1006.4 9.7 WSW 29.0 0.0
11:40 16.2 69.0 1006.3 3.2 SW 25.7 0.0
11:45 16.3 70.0 1006.4 17.7 W 22.5 0.0
11:50 16.3 70.0 1006.3 3.2 W 22.5 0.0
11:55 16.4 70.0 1006.2 11.3 SSW 22.5 0.0
12:00 16.6 67.0 1006.1 8.0 SW 17.7 0.0
12:05 16.7 66.0 1006.0 14.5 W 24.1 0.0
12:10 16.7 65.0 1006.0 9.7 W 35.4 0.0
12:15 16.7 67.0 1006.0 14.5 SW 35.4 0.0
12:20 16.7 64.0 1006.0 14.5 W 25.7 0.0
12:25 16.6 65.0 1005.8 8.0 W 24.1 0.0
Máxima 16.7 83.0 1006.9 20.9 WSW 37.0 0.3
Mínima 8.6 64.0 1004.8
Total 0.3